KLM1089 TTCP-TTPP

Flight info

Callsign KLM1089
Flight time 0h 17m
Altitude 12000
Route DCT NAPKO DCT LEXOR DCT TALUS DCT
Aircraft A321/M-VGDW/C

Departure

Time 2026-04-26 00:57
Airport A.N.R. Robinson International Airport (TTCP)

Arrival

Time 2026-04-26 01:15
Airport Piarco International Airport (TTPP)
Time Latitude Longitude Altitude Speed Heading
2026-04-26 00:49 11.15180 -60.83947 43 ft 0 kts
2026-04-26 00:51 11.15179 -60.83947 43 ft 1 kts
2026-04-26 00:51 11.15164 -60.83949 43 ft 2 kts
2026-04-26 00:51 11.15155 -60.83950 43 ft 2 kts
2026-04-26 00:52 11.15140 -60.83949 43 ft 2 kts 340°
2026-04-26 00:52 11.15127 -60.83942 43 ft 2 kts 322°
2026-04-26 00:52 11.15116 -60.83931 43 ft 2 kts 302°
2026-04-26 00:52 11.15110 -60.83917 43 ft 2 kts 282°
2026-04-26 00:53 11.15109 -60.83910 43 ft 1 kts 271°
2026-04-26 00:53 11.15109 -60.83906 43 ft 0 kts 274°
2026-04-26 00:55 11.15110 -60.83929 43 ft 14 kts 274°
2026-04-26 00:55 11.15122 -60.84054 42 ft 18 kts 278°
2026-04-26 00:56 11.15073 -60.84170 41 ft 18 kts 230°
2026-04-26 00:56 11.15038 -60.84300 39 ft 20 kts 253°
2026-04-26 00:56 11.15021 -60.84432 36 ft 13 kts 310°
2026-04-26 00:56 11.15056 -60.84432 36 ft 4 kts 75°
2026-04-26 00:57 11.15048 -60.84322 38 ft 42 kts 93°
2026-04-26 00:57 11.15005 -60.83732 47 ft 118 kts 94°
2026-04-26 00:57 11.14934 -60.82706 133 ft 166 kts 94°
2026-04-26 00:57 11.14845 -60.81488 715 ft 173 kts 95°
2026-04-26 00:58 11.14744 -60.80296 1488 ft 169 kts 95°
2026-04-26 00:58 11.14531 -60.79139 2048 ft 174 kts 116°
2026-04-26 00:58 11.13659 -60.78229 2453 ft 189 kts 153°
2026-04-26 00:58 11.12344 -60.77997 2852 ft 205 kts 188°
2026-04-26 00:59 11.11038 -60.78654 3229 ft 224 kts 227°
2026-04-26 00:59 11.10380 -60.80134 3641 ft 244 kts 268°
2026-04-26 00:59 11.10819 -60.81842 4117 ft 261 kts 304°
2026-04-26 00:59 11.11987 -60.83281 4871 ft 268 kts 308°
2026-04-26 01:00 11.12788 -60.84960 5688 ft 271 kts 278°
2026-04-26 01:00 11.12557 -60.86816 6502 ft 272 kts 244°
2026-04-26 01:00 11.11386 -60.88311 7301 ft 275 kts 222°
2026-04-26 01:00 11.09969 -60.89609 8066 ft 279 kts 223°
2026-04-26 01:01 11.08605 -60.91026 8825 ft 284 kts 228°
2026-04-26 01:01 11.07346 -60.92553 9581 ft 287 kts 232°
2026-04-26 01:01 11.06136 -60.94192 10322 ft 290 kts 234°
2026-04-26 01:01 11.04961 -60.95898 10766 ft 304 kts 235°
2026-04-26 01:02 11.03770 -60.97705 11087 ft 322 kts 236°
2026-04-26 01:02 11.02550 -60.99605 11600 ft 330 kts 237°
2026-04-26 01:02 11.01298 -61.01581 11930 ft 331 kts 237°
2026-04-26 01:02 11.00069 -61.03533 12062 ft 333 kts 237°
2026-04-26 01:03 10.98825 -61.05515 11743 ft 330 kts 237°
2026-04-26 01:03 10.97602 -61.07471 11366 ft 328 kts 237°
2026-04-26 01:03 10.96390 -61.09409 10993 ft 326 kts 237°
2026-04-26 01:03 10.95273 -61.11195 10647 ft 324 kts 237°
2026-04-26 01:04 10.94032 -61.13181 10261 ft 322 kts 237°
2026-04-26 01:04 10.92861 -61.15054 9894 ft 321 kts 237°
2026-04-26 01:04 10.91673 -61.16953 9519 ft 317 kts 237°
2026-04-26 01:04 10.90508 -61.18817 9146 ft 314 kts 237°
2026-04-26 01:05 10.89340 -61.20679 8770 ft 310 kts 237°
2026-04-26 01:05 10.88191 -61.22494 8398 ft 307 kts 237°
2026-04-26 01:05 10.87074 -61.24261 8033 ft 304 kts 237°
2026-04-26 01:05 10.85933 -61.26071 7682 ft 301 kts 237°
2026-04-26 01:06 10.84817 -61.27848 7381 ft 295 kts 237°
2026-04-26 01:06 10.83722 -61.29595 7081 ft 291 kts 237°
2026-04-26 01:06 10.82640 -61.31326 6749 ft 290 kts 238°
2026-04-26 01:06 10.81569 -61.33054 6434 ft 288 kts 238°
2026-04-26 01:07 10.80509 -61.34748 6135 ft 283 kts 237°
2026-04-26 01:07 10.79470 -61.36409 5837 ft 280 kts 237°
2026-04-26 01:07 10.78432 -61.38066 5538 ft 276 kts 237°
2026-04-26 01:07 10.77401 -61.39712 5231 ft 273 kts 238°
2026-04-26 01:08 10.76388 -61.41329 4903 ft 271 kts 236°
2026-04-26 01:08 10.75385 -61.42943 4596 ft 275 kts 238°
2026-04-26 01:08 10.74342 -61.44592 4256 ft 273 kts 232°
2026-04-26 01:08 10.73369 -61.46229 4268 ft 266 kts 242°
2026-04-26 01:09 10.72420 -61.47825 4085 ft 268 kts 236°
2026-04-26 01:09 10.71394 -61.49403 3775 ft 268 kts 237°
2026-04-26 01:09 10.70352 -61.50971 3413 ft 265 kts 233°
2026-04-26 01:09 10.68936 -61.52099 3091 ft 264 kts 200°
2026-04-26 01:10 10.67162 -61.52357 3084 ft 261 kts 180°
2026-04-26 01:10 10.65374 -61.52301 3073 ft 254 kts 179°
2026-04-26 01:10 10.63610 -61.52267 2861 ft 248 kts 180°
2026-04-26 01:10 10.61929 -61.52258 2666 ft 242 kts 179°
2026-04-26 01:11 10.60319 -61.51960 2548 ft 231 kts 149°
2026-04-26 01:11 10.59286 -61.50803 2381 ft 225 kts 108°
2026-04-26 01:11 10.59123 -61.49244 2212 ft 219 kts 87°
2026-04-26 01:11 10.59262 -61.47716 2017 ft 213 kts 85°
2026-04-26 01:12 10.59379 -61.46276 1846 ft 199 kts 87°
2026-04-26 01:12 10.59440 -61.44951 1787 ft 174 kts 88°
2026-04-26 01:12 10.59486 -61.43806 1743 ft 150 kts 81°
2026-04-26 01:12 10.59576 -61.42790 1752 ft 145 kts 89°
2026-04-26 01:13 10.59530 -61.41744 1771 ft 146 kts 92°
2026-04-26 01:13 10.59505 -61.40729 1762 ft 145 kts 90°
2026-04-26 01:13 10.59516 -61.39708 1742 ft 146 kts 89°
2026-04-26 01:13 10.59548 -61.38653 1288 ft 157 kts 88°
2026-04-26 01:14 10.59555 -61.37494 511 ft 177 kts 90°
2026-04-26 01:14 10.59559 -61.36254 175 ft 159 kts 91°
2026-04-26 01:14 10.59520 -61.35202 63 ft 138 kts 88°
2026-04-26 01:14 10.59527 -61.34447 52 ft 65 kts 86°
2026-04-26 01:15 10.59533 -61.34192 54 ft 27 kts 86°
2026-04-26 01:15 10.59536 -61.33993 55 ft 35 kts 92°
2026-04-26 01:15 10.59531 -61.33714 57 ft 39 kts 87°
2026-04-26 01:15 10.59620 -61.33470 58 ft 30 kts 40°
2026-04-26 01:16 10.59692 -61.33481 58 ft 9 kts 284°
2026-04-26 01:16 10.59699 -61.33558 58 ft 11 kts 271°
2026-04-26 01:16 10.59701 -61.33648 58 ft 13 kts 271°
2026-04-26 01:16 10.59701 -61.33752 56 ft 16 kts 268°
2026-04-26 01:17 10.59699 -61.33878 55 ft 19 kts 270°
2026-04-26 01:17 10.59698 -61.34016 55 ft 19 kts 269°
2026-04-26 01:17 10.59711 -61.34154 55 ft 19 kts 315°
2026-04-26 01:17 10.59821 -61.34163 55 ft 12 kts 16°
2026-04-26 01:18 10.59884 -61.34122 55 ft 10 kts 25°
2026-04-26 01:18 10.59924 -61.34108 55 ft 2 kts 50°
2026-04-26 01:18 10.59932 -61.34094 55 ft 0 kts 71°